Jefferson City, MO

5:45 AM CDT on March 26, 2017 (GMT -0500)
Jefferson City Memorial

Weather History for KJEF - October, 2012

Change the Weather History Date:

Monday, October 8, 2012

  Actual Average Record
Temperature  
Mean Temperature 46 °F -  
Max Temperature 63 °F 71 °F 93 °F (1928)
Min Temperature 30 °F 44 °F 23 °F (1952)
Degree Days  
Heating Degree Days 19    
Moisture  
Dew Point 31 °F    
Average Humidity 60    
Maximum Humidity 92    
Minimum Humidity 29    
Precipitation  
Precipitation 0.01 in - - ()
Sea Level Pressure  
Sea Level Pressure 30.11 in    
Wind  
Wind Speed 5 mph (SE)    
Max Wind Speed 15 mph    
Max Gust Speed 21 mph    
Visibility 10 miles    
Events      
Averages and records for this station are not official NWS values.
T = Trace of Precipitation, MM = Missing Value Source: NWS Daily Summary

Daily Weather History Graph

Daily Weather History Graph

Search for Another Location

Airport or City:

Trip Planner

Search our weather history database for the weather conditions in past years. The results will help you decide how hot, cold, wet, or windy it might be!

Date:

Astronomy

Oct. 08, 2012 Rise Set
Actual Time 7:11 AM CDT 6:39 PM CDT
Civil Twilight 6:44 AM CDT 7:06 PM CDT
Nautical Twilight 6:14 AM CDT 7:37 PM CDT
Astronomical Twilight 5:43 AM CDT 8:07 PM CDT
Moon No Moon Rise 2:25 PM CDT (10/8)
Length of Visible Light 12h 21m
Length of Day
11h 28m
Last Quarter, 46% of the Moon is Illuminated
Oct 8
Last Quarter
Oct 15
New
Oct 21
First Quarter
Oct 29
Full
Nov 6
Last Quarter

Hourly Weather History & Observations

Time (CDT) Temp. Windchill Dew Point Humidity Pressure Visibility Wind Dir Wind Speed Gust Speed Precip Events Conditions
12:53 AM 32.0 °F - 28.9 °F 88% 30.17 in 10.0 mi Calm Calm - N/A   Clear
1:53 AM 33.1 °F 27.7 °F 30.0 °F 89% 30.17 in 10.0 mi ESE 5.8 mph - N/A   Clear
2:53 AM 32.0 °F 27.5 °F 30.0 °F 92% 30.17 in 10.0 mi ESE 4.6 mph - N/A   Clear
3:53 AM 32.0 °F - 28.9 °F 88% 30.17 in 10.0 mi Calm Calm - N/A   Clear
4:53 AM 32.0 °F 28.7 °F 28.9 °F 88% 30.17 in 10.0 mi East 3.5 mph - N/A   Clear
5:53 AM 30.9 °F 27.5 °F 28.0 °F 89% 30.17 in 10.0 mi East 3.5 mph - N/A   Clear
6:53 AM 33.1 °F 30.0 °F 30.0 °F 89% 30.17 in 10.0 mi East 3.5 mph - N/A   Clear
7:53 AM 34.0 °F 31.0 °F 30.9 °F 89% 30.19 in 10.0 mi ESE 3.5 mph - N/A   Clear
8:53 AM 39.9 °F 36.7 °F 34.0 °F 79% 30.19 in 10.0 mi East 4.6 mph - 0.01 in   Clear
9:53 AM 46.9 °F - 34.0 °F 61% 30.18 in 10.0 mi Calm Calm - N/A   Clear
10:53 AM 52.0 °F - 35.1 °F 53% 30.17 in 10.0 mi Variable 3.5 mph - N/A   Clear
11:53 AM 57.0 °F - 30.0 °F 36% 30.15 in 10.0 mi SW 13.8 mph 18.4 mph N/A   Clear
12:53 PM 59.0 °F - 28.0 °F 31% 30.13 in 10.0 mi SW 10.4 mph 18.4 mph N/A   Clear
1:53 PM 60.1 °F - 28.0 °F 30% 30.09 in 10.0 mi South 13.8 mph 20.7 mph N/A   Clear
2:53 PM 61.0 °F - 28.9 °F 30% 30.07 in 10.0 mi SW 12.7 mph 16.1 mph N/A   Clear
3:53 PM 62.1 °F - 28.9 °F 29% 30.04 in 10.0 mi SSW 15.0 mph 19.6 mph N/A   Clear
4:53 PM 61.0 °F - 30.0 °F 31% 30.03 in 10.0 mi South 9.2 mph - N/A   Clear
5:53 PM 61.0 °F - 30.0 °F 31% 30.01 in 10.0 mi SSW 9.2 mph - N/A   Clear
6:53 PM 57.0 °F - 32.0 °F 39% 30.02 in 10.0 mi South 4.6 mph - N/A   Clear
7:53 PM 54.0 °F - 33.1 °F 45% 30.03 in 10.0 mi ESE 3.5 mph - N/A   Clear
8:53 PM 52.0 °F - 33.1 °F 49% 30.03 in 10.0 mi ESE 5.8 mph - N/A   Clear
9:53 PM 50.0 °F - 34.0 °F 54% 30.04 in 10.0 mi ESE 4.6 mph - N/A   Clear
10:53 PM 48.9 °F - 36.0 °F 61% 30.04 in 10.0 mi SSE 4.6 mph - N/A   Clear
11:53 PM 48.0 °F - 36.0 °F 63% 30.03 in 10.0 mi SSE 3.5 mph - N/A   Clear